DECAYED

FALCON 9 R/B, 59347 (Decayed)

Orbit data source: Space-Track

FALCON 9 R/B, 59347 was space debris in LEO originally from a launch on Sat, 30 Mar 2024 UTC launched from the Air Force Eastern Test Range (AFETR). Debris objects in space refer to the collection of defunct objects orbiting the Earth. Examples of debris include non-operational satellites, rocket bodies, and fragments generated from explosions, collisions, or faulty payload assembly.

Not visible in the next 10 days
Identifier
59347, 2024-059B
Orbit
Decayed
Country
Flag of USUS
Related business
Manufacturer
SpaceX
Mission
Decayed spacecraft
Bus & Motor
F9ST2, Unknown motor
Mass
~4,000 kg wet, ~4,000 kg dry
Launch date (UTC)
2024-03-30 (2 years ago)
Launch vehicle
Unknown
Launch site
Air Force Eastern Test Range (AFETR)
Object type
Payload
Rocket body
Debris
Shape & HBR
Cyl, 7.8 m
Radar Cross Section
39.980 m², Large (>1 m²)

Expand to show TLE details & history
Last TLE update: 2 weeks ago

TLE from 2 weeks ago
0 FALCON 9 R/B
1 59347U 24059B   26157.18674731  .31272274 -34802-4  86309-3 0  9995
2 59347  23.3098  53.6555 1165828 328.2199  25.2783 13.81033275 14824
Epoch: 2026-06-06T04:28Z
TLE epoch observation values (Epoch: 2026-06-06T04:28:54.967Z)
Latitude
-0°
Longitude
91.82055°
Altitude
206.268 km
Speed
8.173 km/s
True Right ascension
03h 34m 37s
True Declination
0° 00' 00"
Sunlit
Object was in daylight at epoch
Visualization orbit readout
Latitude
Unknown
Longitude
Unknown
Altitude
Unknown
Speed
Unknown
Apparent Right ascension
Unknown
Apparent Declination
Unknown
Sunlit
N/A
Visualization observer readout
Local Sidereal Time
21:39:00
Azimuth
Unknown
Elevation
Unknown
Doppler factor
Unknown
Orbital elements
Apogee altitude
1,820.992 km
Perigee altitude
108.844 km
Semi-major axis
7,343.055 km
Eccentricity
0.11658
Inclination
23.3098°
RAAN
53.6555°
Arg. of periapsis
328.2199°
True anomaly
31.82808°
Mean anomaly
25.2783°
Eccentric anomaly
28.46165°
Mean motion
3.44928 °/min
Orbital period
104.37 mins
BSTAR
0.00086309
Loading maneuver chart data...
Computing Atmospheric mass density...
Loading historical data...
Loading historical data...
Loading historical data...
Loading historical data...
Loading historical data...
Loading historical data...
Loading historical data...
Other satellites on launch #59 in the year 2024 (2024-03-30 UTC)

Documentation

Showing up to 5 results
|